DW2047 Weather Reports


time (UTC)temp
C
wind
direction
speed
KPH
gust
KPH
rain 1hr
cm
rain 24hr
cm
rain mn
cm
humidity
%
barometer
mb
20260508052005 14 71 0.0 0.0 0.00 0.00 0.00 90 1016.0
20260508051520 14 71 0.0 0.0 0.00 0.00 0.00 90 1015.8
20260508051047 14 71 0.0 0.0 0.00 0.00 0.00 89 1016.0
20260508050524 14 71 0.0 0.0 0.00 0.00 0.00 89 1016.0
20260508050025 14 71 0.0 0.0 0.00 0.00 0.00 89 1016.3
20260508045603 15 71 0.0 0.0 0.00 0.00 0.00 89 1016.4
20260508045041 15 71 0.0 0.0 0.00 0.00 0.00 90 1016.1
20260508044559 15 71 0.0 0.0 0.00 0.00 0.00 89 1016.6
20260508044013 15 71 0.0 0.0 0.00 0.00 0.00 89 1016.6
20260508043555 15 71 0.0 0.0 0.00 0.00 0.00 89 1016.7
20260508043108 15 71 0.0 0.0 0.00 0.00 0.00 89 1016.3
20260508042529 15 71 0.0 0.0 0.00 0.00 0.00 89 1016.1
20260508042005 15 71 0.0 0.0 0.00 0.00 0.00 88 1016.2
20260508041506 15 71 0.0 0.0 0.00 0.00 0.00 88 1016.4
20260508041045 15 71 0.0 0.0 0.00 0.00 0.00 88 1016.4
20260508040521 15 71 0.0 0.0 0.00 0.00 0.00 87 1016.4
20260508040026 15 71 0.0 0.0 0.00 0.00 0.00 87 1016.6
20260508035602 15 71 0.0 0.0 0.00 0.00 0.00 86 1016.6
20260508035035 15 71 0.0 0.0 0.00 0.00 0.00 86 1016.7
20260508034543 15 71 0.0 0.0 0.00 0.00 0.00 86 1016.8
20260508034009 15 71 0.0 0.0 0.00 0.00 0.00 85 1016.8
20260508033545 15 71 0.0 0.0 0.00 0.00 0.00 85 1017.1
20260508033032 15 71 0.0 0.0 0.00 0.00 0.00 85 1016.9
20260508032502 15 71 1.6 0.0 0.00 0.00 0.00 85 1016.7
20260508032042 15 71 1.6 0.0 0.00 0.00 0.00 85 1016.6
20260508031528 15 71 0.0 0.0 0.00 0.00 0.00 85 1016.6
20260508031004 15 71 0.0 0.0 0.00 0.00 0.00 85 1016.9
20260508030543 15 71 0.0 0.0 0.00 0.00 0.00 85 1016.8
20260508030042 15 71 0.0 0.0 0.00 0.00 0.00 85 1016.1
20260508025505 15 71 0.0 0.0 0.00 0.00 0.00 85 1015.9
20260508025041 16 71 0.0 0.0 0.00 0.00 0.00 85 1015.6
20260508024552 16 71 0.0 0.0 0.00 0.00 0.00 84 1015.6
20260508024026 16 71 0.0 0.0 0.00 0.00 0.00 84 1015.7
20260508023501 16 71 0.0 0.0 0.00 0.00 0.00 84 1015.4
20260508023010 16 71 0.0 0.0 0.00 0.00 0.00 84 1015.1
20260508022543 16 71 0.0 0.0 0.00 0.00 0.00 83 1015.0
20260508022020 16 71 0.0 0.0 0.00 0.00 0.00 83 1015.0
20260508021526 16 71 0.0 0.0 0.00 0.00 0.00 83 1015.1
20260508021100 16 71 0.0 0.0 0.00 0.00 0.00 82 1015.0
20260508020530 16 71 0.0 0.0 0.00 0.00 0.00 83 1015.0
20260508020039 16 71 0.0 0.0 0.00 0.00 0.00 82 1015.0
20260508015508 16 71 0.0 0.0 0.00 0.00 0.00 82 1015.1
20260508015048 16 71 0.0 0.0 0.00 0.00 0.00 82 1014.9
20260508014550 16 71 0.0 0.0 0.00 0.00 0.00 81 1014.8
20260508014023 16 71 0.0 0.0 0.00 0.00 0.00 82 1014.9
20260508013605 16 71 0.0 0.0 0.00 0.00 0.00 81 1015.1
20260508013106 16 71 0.0 0.0 0.00 0.00 0.00 81 1015.1
20260508012540 16 71 0.0 0.0 0.00 0.00 0.00 81 1015.1
20260508012017 17 71 0.0 0.0 0.00 0.00 0.00 80 1015.0
20260508011525 17 71 0.0 0.0 0.00 0.00 0.00 79 1014.9
20260508011103 17 71 0.0 0.0 0.00 0.00 0.00 79 1015.0
20260508010535 17 71 0.0 0.0 0.00 0.00 0.00 78 1015.0
20260508010041 17 71 0.0 0.0 0.00 0.00 0.00 77 1015.3
20260508005513 17 71 0.0 0.0 0.00 0.00 0.00 76 1015.5
20260508005050 17 71 0.0 0.0 0.00 0.00 0.00 76 1015.4
20260508004557 17 71 0.0 0.0 0.00 0.00 0.00 75 1015.5
20260508004031 17 71 0.0 0.0 0.00 0.00 0.00 75 1015.7
20260508003504 18 71 0.0 0.0 0.00 0.00 0.00 74 1015.5
20260508003056 18 71 0.0 0.0 0.00 0.00 0.00 73 1015.8
20260508002529 18 71 0.0 0.0 0.00 0.00 0.00 72 1015.6
20260508002002 18 71 0.0 0.0 0.00 0.00 0.00 73 1015.8
20260508001557 18 71 1.6 0.0 0.00 0.00 0.00 72 1015.8
20260508001028 18 71 1.6 0.0 0.00 0.00 0.00 70 1016.1
20260508000503 18 71 1.6 0.0 0.00 0.00 0.00 70 1016.1
20260508000052 18 72 1.6 0.0 0.00 0.00 0.00 70 1016.1
20260507235528 18 333 0.0 0.0 0.00 0.00 0.00 71 1016.6
20260507235108 18 333 0.0 0.0 0.00 0.00 0.00 71 1016.6
20260507234603 18 333 0.0 0.0 0.00 0.00 0.00 71 1016.7
20260507234029 18 58 0.0 0.0 0.00 0.00 0.00 72 1016.8
20260507233507 18 58 0.0 0.0 0.00 0.00 0.00 71 1016.8
20260507233056 18 66 0.0 0.0 0.00 0.00 0.00 70 1016.7
20260507232525 18 66 0.0 0.0 0.00 0.00 0.00 70 1016.2
20260507232002 18 66 1.6 0.0 0.00 0.00 0.00 70 1015.7
20260507231558 18 66 1.6 0.0 0.00 0.00 0.00 70 1015.6
20260507231035 18 36 0.0 0.0 0.00 0.00 0.00 70 1016.1
20260507230509 18 36 0.0 0.0 0.00 0.00 0.00 70 1016.2
20260507230100 18 90 0.0 0.0 0.00 0.00 0.00 70 1016.2
20260507225531 18 90 0.0 0.0 0.00 0.00 0.00 70 1016.1
20260507225008 18 92 1.6 0.0 0.00 0.00 0.00 69 1016.4
20260507224518 18 92 1.6 0.0 0.00 0.00 0.00 70 1016.5
20260507224054 18 59 1.6 0.0 0.00 0.00 0.00 70 1016.8
20260507223527 18 140 0.0 0.0 0.00 0.00 0.00 70 1016.9
20260507223028 18 140 0.0 0.0 0.00 0.00 0.00 70 1016.8
20260507222605 18 140 1.6 0.0 0.00 0.00 0.00 70 1016.7
20260507222036 18 140 1.6 0.0 0.00 0.00 0.00 70 1016.7
20260507221541 18 65 1.6 0.0 0.00 0.00 0.00 69 1016.9
20260507221014 18 65 1.6 0.0 0.00 0.00 0.00 70 1016.6
20260507220552 18 63 1.6 0.0 0.00 0.00 0.00 71 1016.7
20260507220057 18 69 1.6 0.0 0.00 0.00 0.00 71 1016.7
20260507215534 18 15 1.6 0.0 0.00 0.00 0.00 71 1017.4
20260507215008 18 25 1.6 0.0 0.00 0.00 0.00 70 1017.6
20260507214508 18 321 1.6 0.0 0.00 0.00 0.00 72 1017.4
20260507214044 18 321 3.2 0.0 0.00 0.00 0.00 70 1017.7
20260507213523 18 321 1.6 0.0 0.00 0.00 0.00 71 1017.7
20260507213028 18 315 1.6 0.0 0.00 0.00 0.00 72 1017.5
20260507212606 18 315 1.6 0.0 0.00 0.00 0.00 70 1017.3
20260507212040 18 315 3.2 0.0 0.00 0.00 0.00 71 1017.2
20260507211539 18 315 3.2 0.0 0.00 0.00 0.00 70 1017.5
20260507211011 18 342 1.6 0.0 0.00 0.00 0.00 70 1017.4
20260507210547 18 344 1.6 0.0 0.00 0.00 0.00 70 1017.2
20260507210051 18 22 3.2 0.0 0.00 0.00 0.00 71 1016.9
20260507205523 18 72 3.2 0.0 0.00 0.00 0.00 69 1017.1
20260507205059 18 346 1.6 0.0 0.00 0.00 0.00 70 1017.4
20260507204501 18 346 1.6 0.0 0.00 0.00 0.00 71 1017.5
20260507204040 18 348 1.6 0.0 0.00 0.00 0.00 71 1017.5
20260507203522 18 5 1.6 0.0 0.00 0.00 0.00 71 1017.9
20260507203027 18 67 1.6 0.0 0.00 0.00 0.00 71 1017.8
20260507202502 18 9 0.0 0.0 0.00 0.00 0.00 71 1018.2
20260507202041 18 9 0.0 0.0 0.00 0.00 0.00 71 1018.3
20260507201537 17 9 1.6 0.0 0.00 0.00 0.00 72 1018.2
20260507201001 17 9 1.6 0.0 0.00 0.00 0.00 72 1017.9
20260507200540 17 282 1.6 0.0 0.00 0.00 0.00 72 1017.5
20260507200042 18 268 1.6 0.0 0.00 0.00 0.00 72 1017.7
20260507195501 18 268 1.6 0.0 0.00 0.00 0.00 72 1017.9
20260507195045 18 268 1.6 0.0 0.00 0.00 0.00 73 1018.2
20260507194531 18 268 0.0 0.0 0.00 0.00 0.00 71 1018.5
20260507194003 18 265 0.0 0.0 0.00 0.00 0.00 71 1018.7
20260507193545 18 350 1.6 0.0 0.00 0.00 0.00 71 1018.6
20260507193059 18 24 1.6 0.0 0.00 0.00 0.00 72 1019.0
20260507192523 18 40 1.6 0.0 0.00 0.00 0.00 71 1018.9
20260507192102 18 81 1.6 0.0 0.00 0.00 0.00 72 1018.5
20260507191506 17 21 3.2 0.0 0.00 0.00 0.00 73 1018.5
20260507191040 17 70 3.2 0.0 0.00 0.00 0.00 72 1018.5
20260507190511 17 333 3.2 0.0 0.00 0.00 0.00 73 1018.1
20260507190012 17 76 3.2 0.0 0.00 0.00 0.00 73 1018.4
20260507185547 17 64 3.2 0.0 0.00 0.00 0.00 73 1018.5
20260507185017 17 24 3.2 0.0 0.00 0.00 0.00 73 1018.8
20260507184502 17 118 3.2 0.0 0.00 0.00 0.00 73 1018.0
20260507184041 17 351 3.2 0.0 0.00 0.00 0.00 74 1018.2
20260507183510 17 360 3.2 0.0 0.00 0.00 0.00 73 1018.3
20260507183107 17 355 3.2 0.0 0.00 0.00 0.00 73 1018.3
20260507182542 17 39 3.2 0.0 0.00 0.00 0.00 74 1018.8
20260507182023 17 12 3.2 0.0 0.00 0.00 0.00 74 1018.2
20260507181527 17 67 3.2 0.0 0.00 0.00 0.00 74 1018.6
20260507181105 17 98 3.2 0.0 0.00 0.00 0.00 74 1018.9
20260507180541 17 313 3.2 0.0 0.00 0.00 0.00 74 1018.9
20260507180045 17 334 3.2 0.0 0.00 0.00 0.00 73 1019.3
20260507175515 17 17 3.2 0.0 0.00 0.00 0.00 75 1019.3
20260507175051 17 5 3.2 0.0 0.00 0.00 0.00 75 1019.6
20260507174607 17 76 3.2 0.0 0.00 0.00 0.00 76 1019.2
20260507174030 17 86 3.2 0.0 0.00 0.00 0.00 76 1018.4
20260507173503 16 67 4.8 0.0 0.00 0.00 0.00 77 1018.1
20260507173005 16 5 3.2 0.0 0.00 0.00 0.00 78 1018.7
20260507172547 16 350 3.2 0.0 0.00 0.00 0.00 80 1018.9
20260507172017 16 336 3.2 0.0 0.00 0.00 0.00 81 1019.2
20260507171521 16 336 3.2 0.0 0.00 0.00 0.00 80 1019.5
20260507171100 16 69 3.2 0.0 0.00 0.00 0.00 83 1019.1
20260507170530 15 69 3.2 0.0 0.00 0.00 0.00 83 1018.8
20260507170031 15 65 3.2 0.0 0.00 0.00 0.00 82 1018.6
20260507165503 15 51 3.2 0.0 0.00 0.00 0.00 82 1018.3
20260507165044 15 80 3.2 0.0 0.00 0.00 0.00 81 1019.1
20260507164601 15 347 1.6 0.0 0.00 0.00 0.00 81 1018.8
20260507164020 15 323 3.2 0.0 0.00 0.00 0.00 81 1019.1
20260507163559 15 328 3.2 0.0 0.00 0.00 0.00 81 1019.7
20260507163100 15 327 1.6 0.0 0.00 0.00 0.00 81 1020.6
20260507162533 15 327 0.0 0.0 0.00 0.00 0.00 81 1020.8
20260507162007 15 327 0.0 0.0 0.00 0.00 0.00 82 1020.8
20260507161508 15 327 1.6 0.0 0.00 0.00 0.00 82 1020.4
20260507161043 15 327 1.6 0.0 0.00 0.00 0.00 82 1020.3
20260507160520 15 342 1.6 0.0 0.00 0.00 0.00 82 1020.0
20260507160032 15 10 1.6 0.0 0.00 0.00 0.00 83 1019.8
20260507155555 15 10 1.6 0.0 0.00 0.00 0.00 83 1019.9
20260507155031 15 67 1.6 0.0 0.00 0.00 0.00 82 1019.9
20260507154538 15 73 3.2 0.0 0.00 0.00 0.00 82 1020.4
20260507154010 15 73 3.2 0.0 0.00 0.00 0.00 82 1020.6
20260507153544 15 5 3.2 0.0 0.00 0.00 0.00 83 1019.6
20260507153030 15 326 3.2 0.0 0.00 0.00 0.00 83 1020.0
20260507152507 15 325 1.6 0.0 0.00 0.00 0.00 82 1020.5
20260507152042 15 325 3.2 0.0 0.00 0.00 0.00 83 1020.3
20260507151546 15 325 3.2 0.0 0.00 0.00 0.00 83 1019.6
20260507151018 15 321 1.6 0.0 0.00 0.00 0.00 84 1019.9
20260507150554 15 11 1.6 0.0 0.00 0.00 0.00 84 1020.2
20260507150106 15 46 3.2 0.0 0.00 0.00 0.00 84 1020.2
20260507145528 14 338 4.8 0.0 0.00 0.00 0.00 84 1020.1
20260507145003 14 350 3.2 0.0 0.00 0.00 0.00 85 1019.4
20260507144503 14 55 1.6 0.0 0.00 0.00 0.00 86 1019.1
20260507144042 14 333 3.2 0.0 0.00 0.00 0.00 86 1019.6
20260507143520 14 348 3.2 0.0 0.00 0.00 0.00 86 1019.7
20260507143020 14 360 4.8 0.0 0.00 0.00 0.00 87 1019.3
20260507142600 14 355 3.2 0.0 0.00 0.00 0.00 87 1019.6
20260507142032 14 344 1.6 0.0 0.00 0.00 0.00 88 1019.8
20260507141548 14 337 1.6 0.0 0.00 0.00 0.00 89 1019.6
20260507141015 14 337 3.2 0.0 0.00 0.00 0.00 89 1019.7
20260507140551 14 337 3.2 0.0 0.00 0.00 0.00 89 1019.7
20260507140043 13 355 3.2 0.0 0.00 0.00 0.00 90 1019.6
20260507135515 13 56 3.2 0.0 0.00 0.00 0.00 90 1019.2
20260507135057 13 344 3.2 0.0 0.00 0.00 0.00 90 1019.4
20260507134600 13 344 3.2 0.0 0.00 0.00 0.00 91 1019.1
20260507134033 13 344 1.6 0.0 0.00 0.00 0.00 91 1019.3
20260507133510 13 342 3.2 0.0 0.00 0.00 0.00 91 1018.8
20260507133010 13 346 3.2 0.0 0.00 0.00 0.00 91 1019.3
20260507132547 13 348 3.2 0.0 0.00 0.00 0.00 91 1019.2
20260507132023 13 10 3.2 0.0 0.00 0.00 0.00 91 1019.2
20260507131534 13 346 3.2 0.0 0.00 0.00 0.00 92 1019.3
20260507131106 13 351 3.2 0.0 0.00 0.00 0.00 92 1019.4
20260507130540 13 315 3.2 0.0 0.00 0.00 0.00 92 1019.4
20260507130043 13 339 3.2 0.0 0.00 0.00 0.00 92 1019.4
20260507125518 13 321 3.2 0.0 0.00 0.00 0.00 92 1019.2
20260507125050 13 321 3.2 0.0 0.00 0.00 0.00 92 1019.1
20260507124540 13 322 3.2 0.0 0.00 0.00 0.00 92 1019.2
20260507124016 13 325 4.8 0.0 0.00 0.00 0.00 91 1019.2
20260507123552 13 314 4.8 0.0 0.00 0.00 0.00 92 1019.2
20260507123106 13 306 4.8 0.0 0.00 0.00 0.00 92 1019.0
20260507122529 13 326 6.4 0.0 0.00 0.00 0.00 91 1018.8
20260507122007 13 348 4.8 0.0 0.00 0.00 0.00 91 1018.9
20260507121508 13 350 4.8 0.0 0.00 0.00 0.00 91 1018.8
20260507121049 13 351 3.2 0.0 0.00 0.00 0.00 91 1018.6
20260507120519 13 355 3.2 0.0 0.00 0.00 0.00 91 1018.6
20260507120021 13 350 3.2 0.0 0.00 0.00 0.00 91 1018.2
20260507115557 13 349 3.2 0.0 0.00 0.00 0.00 91 1018.2
20260507115028 13 360 4.8 0.0 0.00 0.00 0.00 91 1018.2
20260507114535 13 319 4.8 0.0 0.00 0.00 0.00 91 1018.4
20260507114005 13 342 4.8 0.0 0.00 0.00 0.00 91 1018.5
20260507113541 13 334 4.8 0.0 0.00 0.00 0.00 91 1018.5
20260507113045 13 309 4.8 0.0 0.00 0.00 0.00 91 1018.4
20260507112521 13 329 4.8 0.0 0.00 0.00 0.00 91 1018.3
20260507112054 13 331 3.2 0.0 0.00 0.00 0.00 90 1018.3
20260507111600 13 331 3.2 0.0 0.00 0.00 0.00 91 1018.3
20260507111028 13 338 4.8 0.0 0.00 0.00 0.00 91 1018.2
20260507110502 13 360 3.2 0.0 0.00 0.00 0.00 90 1018.2
20260507110114 13 355 3.2 0.0 0.00 0.00 0.00 90 1018.1
20260507105533 13 340 3.2 0.0 0.00 0.00 0.00 90 1018.1
20260507105003 13 339 3.2 0.0 0.00 0.00 0.00 90 1018.2
20260507104508 13 334 3.2 0.0 0.00 0.00 0.00 90 1018.4
20260507104046 14 346 3.2 0.0 0.00 0.00 0.00 90 1018.1
20260507103522 14 323 3.2 0.0 0.00 0.00 0.00 90 1017.9
20260507103001 14 344 3.2 0.0 0.00 0.00 0.00 90 1017.8
20260507102538 14 341 1.6 0.0 0.00 0.00 0.00 90 1018.0
20260507102008 14 342 1.6 0.0 0.00 0.00 0.00 90 1018.4
20260507101518 14 315 3.2 0.0 0.00 0.00 0.00 90 1017.9
20260507101051 14 5 1.6 0.0 0.00 0.00 0.00 90 1017.9
20260507100523 14 360 1.6 0.0 0.00 0.00 0.00 90 1017.7
20260507100034 14 355 1.6 0.0 0.00 0.00 0.00 90 1017.6
20260507095506 14 355 1.6 0.0 0.00 0.00 0.00 90 1017.8
20260507095044 14 355 1.6 0.0 0.00 0.00 0.00 90 1018.0
20260507094533 14 355 1.6 0.0 0.00 0.00 0.00 90 1017.9
20260507094008 14 355 1.6 0.0 0.00 0.00 0.00 89 1017.9
20260507093543 14 343 1.6 0.0 0.00 0.00 0.00 89 1017.4
20260507093057 14 355 1.6 0.0 0.00 0.00 0.00 90 1017.3
20260507092526 14 347 1.6 0.0 0.00 0.00 0.00 89 1017.6
20260507092102 14 347 1.6 0.0 0.00 0.00 0.00 90 1017.6
20260507091642 14 347 1.6 0.0 0.00 0.00 0.00 89 1017.5
20260507091034 14 347 1.6 0.0 0.00 0.00 0.00 90 1016.9
20260507090511 14 347 1.6 0.0 0.00 0.00 0.00 89 1017.0
20260507090017 14 283 1.6 0.0 0.00 0.00 0.00 90 1017.1
20260507085555 14 279 1.6 0.0 0.00 0.00 0.00 90 1017.1
20260507085027 14 279 0.0 0.0 0.00 0.00 0.00 90 1016.7
20260507084538 14 279 0.0 0.0 0.00 0.00 0.00 90 1016.9
20260507084004 14 279 0.0 0.0 0.00 0.00 0.00 89 1017.0
20260507083540 14 279 0.0 0.0 0.00 0.00 0.00 89 1016.5
20260507083045 14 279 0.0 0.0 0.00 0.00 0.00 89 1016.5
20260507082519 14 279 0.0 0.0 0.00 0.00 0.00 89 1016.7
20260507082056 14 279 0.0 0.0 0.00 0.00 0.00 89 1016.5
20260507081609 14 9 0.0 0.0 0.00 0.00 0.00 89 1016.6
20260507081033 14 360 1.6 0.0 0.00 0.00 0.00 89 1016.6
20260507080514 14 360 1.6 0.0 0.00 0.00 0.00 89 1016.1
20260507080015 14 72 1.6 0.0 0.00 0.00 0.00 89 1015.9
20260507075550 14 9 1.6 0.0 0.00 0.00 0.00 89 1016.1
20260507075020 14 10 0.0 0.0 0.00 0.00 0.00 89 1016.3
20260507074538 14 360 1.6 0.0 0.00 0.00 0.00 89 1016.1
20260507074101 14 360 1.6 0.0 0.00 0.00 0.00 88 1015.7
20260507073537 14 323 1.6 0.0 0.00 0.00 0.00 88 1015.7
20260507073041 14 350 1.6 0.0 0.00 0.00 0.00 88 1016.1
20260507072513 14 355 3.2 0.0 0.00 0.00 0.00 88 1016.0
20260507072047 14 77 3.2 0.0 0.00 0.00 0.00 88 1016.2
20260507071556 14 69 3.2 0.0 0.00 0.00 0.00 88 1016.1
20260507071025 14 55 1.6 0.0 0.00 0.00 0.00 88 1016.0
20260507070602 15 70 1.6 0.0 0.00 0.00 0.00 87 1016.0
20260507070059 15 74 1.6 0.0 0.00 0.00 0.00 87 1016.0
20260507065524 15 144 0.0 0.0 0.00 0.00 0.00 87 1015.6
20260507065101 15 144 0.0 0.0 0.00 0.00 0.00 87 1015.6
20260507064602 15 49 0.0 0.0 0.00 0.00 0.00 87 1015.9
20260507064038 15 78 1.6 0.0 0.00 0.00 0.00 87 1015.6
20260507063508 15 300 1.6 0.0 0.00 0.00 0.00 86 1015.7
20260507063016 15 350 0.0 0.0 0.00 0.00 0.00 86 1015.7
20260507062555 15 350 0.0 0.0 0.00 0.00 0.00 86 1015.9
20260507062031 15 76 1.6 0.0 0.00 0.00 0.00 86 1016.1
20260507061533 15 74 0.0 0.0 0.00 0.00 0.00 86 1016.0
20260507061005 15 360 0.0 0.0 0.00 0.00 0.00 86 1016.1
20260507060549 15 360 0.0 0.0 0.00 0.00 0.00 86 1016.2
20260507060100 15 75 1.6 0.0 0.00 0.00 0.00 85 1016.1
20260507055519 15 75 1.6 0.0 0.00 0.00 0.00 85 1015.8
20260507055055 15 44 1.6 0.0 0.00 0.00 0.00 85 1015.7
20260507054600 15 360 1.6 0.0 0.00 0.00 0.00 85 1015.9
20260507054030 15 348 1.6 0.0 0.00 0.00 0.00 85 1015.6
20260507053502 15 56 1.6 0.0 0.00 0.00 0.00 85 1015.6
20260507053005 15 73 1.6 0.0 0.00 0.00 0.00 86 1015.7
20260507052545 15 94 1.6 0.0 0.00 0.00 0.00 86 1015.8